Date String (YYYY-MM-DD hh:mm:ss) UTC,Instrument flags,Ambient pressure (hPa),Sample flow (lpm),Bypass flow (lpm),Sample temperature (°C),Ambient temperature (°C),ASC tube jacket temperature (°C),LED temperature (°C),Box temperature (°C),Sample RH (%),Span deviation,Mass concentration (μg/m³),Mass concentration (μg/m³),Mass concentration (μg/m³)
DateTimeUTC,F1_M11,P_M11,Q1_M11,Q2_M11,T1_M11,T2_M11,T3_M11,T4_M11,T5_M11,U1_M11,ZSPAN_M11,X0_M11,X2_M11,X1_M11
2022-07-16 05:00:00,,0832.7,5.00,0.00,31.0,27.8,00.0,39.3,32.0,34.7,0000.0,0012.35,0005.31,0004.28
2022-07-16 05:01:00,,0832.6,5.00,0.00,30.9,27.2,00.0,39.2,31.9,34.8,0000.0,0012.95,0005.36,0004.31
2022-07-16 05:02:00,,0832.6,5.01,0.00,30.8,27.1,00.0,39.2,31.8,35.1,0000.0,0013.26,0005.37,0004.32
2022-07-16 05:03:00,,0832.6,4.98,0.00,30.8,27.2,00.0,39.2,31.7,35.2,0000.0,0013.50,0005.37,0004.32
2022-07-16 05:04:00,,0832.6,5.01,0.00,31.0,27.3,00.0,39.2,31.9,34.8,0000.0,0013.67,0005.38,0004.32
2022-07-16 05:05:00,,0832.7,5.00,0.00,31.1,27.5,00.0,39.2,31.9,34.5,0000.0,0013.26,0005.35,0004.33
2022-07-16 05:06:00,,0832.6,4.99,0.00,31.2,27.7,00.0,39.2,31.9,34.3,0000.0,0013.02,0005.29,0004.32
2022-07-16 05:07:00,,0832.6,5.00,0.00,31.2,27.9,00.0,39.2,31.9,34.3,0000.0,0012.45,0005.23,0004.31
2022-07-16 05:08:00,,0832.6,5.00,0.00,31.2,28.1,00.0,39.2,31.9,34.3,0000.0,0011.97,0005.22,0004.31
2022-07-16 05:09:00,,0832.6,5.00,0.00,31.2,28.2,00.0,39.3,32.0,34.3,0000.0,0011.32,0005.20,0004.31
2022-07-16 05:10:00,,0832.6,5.01,0.00,31.2,28.4,00.0,39.3,32.0,34.3,0000.0,0011.06,0005.21,0004.31
2022-07-16 05:11:00,,0832.6,5.00,0.00,31.2,28.5,00.0,39.4,32.0,34.3,0000.0,0011.00,0005.18,0004.30
2022-07-16 05:12:00,,0832.7,5.00,0.00,31.2,28.6,00.0,39.4,32.1,34.3,0000.0,0010.19,0005.17,0004.30
2022-07-16 05:13:00,,0832.6,5.00,0.00,31.2,28.7,00.0,39.4,32.1,34.2,0000.0,0009.69,0005.14,0004.30
2022-07-16 05:14:00,,0832.6,5.00,0.00,31.2,28.8,00.0,39.4,32.1,34.1,0000.0,0009.26,0005.11,0004.27
2022-07-16 05:15:00,,0832.6,5.00,0.00,31.2,28.6,00.0,39.4,32.1,34.1,0000.0,0008.99,0005.10,0004.27
2022-07-16 05:16:00,,0832.6,5.01,0.00,31.1,27.8,00.0,39.3,32.1,34.2,0000.0,0009.00,0005.11,0004.25
2022-07-16 05:17:00,,0832.6,4.98,0.00,31.1,27.3,00.0,39.3,32.0,34.3,0000.0,0009.01,0005.08,0004.23
2022-07-16 05:18:00,,0832.6,5.01,0.00,30.9,27.1,00.0,39.3,31.8,34.6,0000.0,0008.96,0005.04,0004.22
2022-07-16 05:19:00,,0832.6,5.00,0.00,30.8,27.2,00.0,39.3,31.7,34.9,0000.0,0009.16,0004.98,0004.20
2022-07-16 05:20:00,,0832.5,5.01,0.00,30.7,27.3,00.0,39.2,31.7,35.1,0000.0,0009.14,0004.95,0004.17
2022-07-16 05:21:00,,0832.6,4.99,0.00,30.9,27.5,00.0,39.2,31.8,34.6,0000.0,0008.99,0004.89,0004.13
2022-07-16 05:22:00,,0832.6,4.99,0.00,30.9,27.7,00.0,39.2,31.9,34.4,0000.0,0008.91,0004.86,0004.09
2022-07-16 05:23:00,,0832.6,5.00,0.00,30.9,27.9,00.0,39.2,31.9,34.2,0000.0,0008.80,0004.80,0004.05
2022-07-16 05:24:00,,0832.5,5.01,0.00,30.9,28.0,00.0,39.2,31.9,34.2,0000.0,0008.95,0004.79,0004.04
2022-07-16 05:25:00,,0832.5,5.00,0.00,30.9,28.2,00.0,39.2,31.9,34.2,0000.0,0009.01,0004.77,0004.03
2022-07-16 05:26:00,,0832.6,5.00,0.00,30.9,28.3,00.0,39.3,32.0,34.4,0000.0,0009.79,0004.74,0004.00
2022-07-16 05:27:00,,0832.5,5.00,0.00,30.9,28.4,00.0,39.3,32.0,34.4,0000.0,0009.93,0004.69,0003.98
2022-07-16 05:28:00,,0832.6,5.00,0.00,30.9,28.6,00.0,39.3,32.0,34.4,0000.0,0010.25,0004.68,0003.98
2022-07-16 05:29:00,,0832.5,5.00,0.00,30.9,28.7,00.0,39.3,32.0,34.3,0000.0,0010.15,0004.68,0003.96
2022-07-16 05:30:00,,0832.5,5.00,0.00,30.9,28.7,00.0,39.3,32.1,34.2,0000.0,0009.80,0004.68,0003.95
2022-07-16 05:31:00,,0832.6,5.00,0.00,30.9,28.5,00.0,39.3,32.1,34.3,0000.0,0009.94,0004.70,0003.95
2022-07-16 05:32:00,,0832.5,5.01,0.00,30.9,27.7,00.0,39.2,32.0,34.3,0000.0,0010.55,0004.69,0003.96
2022-07-16 05:33:00,,0832.5,5.00,0.00,30.8,27.2,00.0,39.2,31.9,34.4,0000.0,0011.24,0004.72,0003.97
2022-07-16 05:34:00,,0832.5,4.99,0.00,30.7,27.1,00.0,39.1,31.8,34.6,0000.0,0011.23,0004.69,0003.96
2022-07-16 05:35:00,,0832.4,5.00,0.00,30.6,27.1,00.0,39.1,31.7,34.7,0000.0,0011.12,0004.66,0003.95
2022-07-16 05:36:00,,0832.4,4.99,0.00,30.5,27.3,00.0,39.1,31.6,34.9,0000.0,0011.09,0004.66,0003.93
2022-07-16 05:37:00,,0832.3,5.00,0.00,30.5,27.5,00.0,39.1,31.6,35.1,0000.0,0010.27,0004.64,0003.93
2022-07-16 05:38:00,,0832.5,5.00,0.00,30.6,27.7,00.0,39.1,31.8,34.8,0000.0,0010.05,0004.64,0003.94
2022-07-16 05:39:00,,0832.4,5.02,0.00,30.7,27.8,00.0,39.1,31.8,34.5,0000.0,0009.83,0004.62,0003.92
2022-07-16 05:40:00,,0832.5,5.00,0.00,30.8,28.0,00.0,39.1,31.9,34.4,0000.0,0010.01,0004.62,0003.92
2022-07-16 05:41:00,,0832.5,5.00,0.00,30.8,28.2,00.0,39.1,31.9,34.4,0000.0,0010.05,0004.62,0003.92
2022-07-16 05:42:00,,0832.5,5.00,0.00,30.8,28.3,00.0,39.1,31.9,34.3,0000.0,0009.96,0004.62,0003.91
2022-07-16 05:43:00,,0832.5,5.00,0.00,30.8,28.4,00.0,39.1,31.9,33.9,0000.0,0009.35,0004.62,0003.91
2022-07-16 05:44:00,,0832.5,5.01,0.00,30.8,28.5,00.0,39.1,31.9,33.8,0000.0,0008.60,0004.56,0003.89
2022-07-16 05:45:00,,0832.5,5.00,0.00,30.8,28.6,00.0,39.2,32.0,33.7,0000.0,0008.44,0004.53,0003.87
2022-07-16 05:46:00,,0832.5,4.99,0.00,30.8,28.7,00.0,39.2,32.0,33.5,0000.0,0008.41,0004.52,0003.86
2022-07-16 05:47:00,,0832.5,5.00,0.00,30.8,28.7,00.0,39.2,32.1,33.5,0000.0,0008.28,0004.50,0003.85
2022-07-16 05:48:00,,0832.5,5.01,0.00,30.8,28.2,00.0,39.1,32.0,33.5,0000.0,0008.34,0004.51,0003.85
2022-07-16 05:49:00,,0832.5,4.99,0.00,30.8,27.5,00.0,39.1,31.9,33.6,0000.0,0008.63,0004.49,0003.84
2022-07-16 05:50:00,,0832.4,5.01,0.00,30.7,27.1,00.0,39.1,31.8,33.8,0000.0,0008.78,0004.46,0003.83
2022-07-16 05:51:00,,0832.5,5.00,0.00,30.6,27.1,00.0,39.1,31.6,34.2,0000.0,0008.48,0004.42,0003.82
2022-07-16 05:52:00,,0832.5,5.00,0.00,30.5,27.2,00.0,39.0,31.6,34.6,0000.0,0008.47,0004.41,0003.81
2022-07-16 05:53:00,,0832.5,5.00,0.00,30.4,27.4,00.0,39.0,31.6,35.2,0000.0,0008.38,0004.38,0003.82
2022-07-16 05:54:00,,0832.5,5.00,0.00,30.5,27.5,00.0,39.0,31.7,35.5,0000.0,0008.29,0004.36,0003.83
2022-07-16 05:55:00,,0832.5,4.99,0.00,30.8,27.7,00.0,39.0,31.9,34.8,0000.0,0008.93,0004.39,0003.83
2022-07-16 05:56:00,,0832.6,5.00,0.00,31.0,27.9,00.0,39.0,32.0,34.3,0000.0,0009.07,0004.42,0003.85
2022-07-16 05:57:00,,0832.6,5.00,0.00,31.1,28.1,00.0,39.0,32.0,34.1,0000.0,0009.03,0004.44,0003.88
2022-07-16 05:58:00,,0832.6,5.00,0.00,31.1,28.2,00.0,39.1,31.9,33.5,0000.0,0009.17,0004.47,0003.90
2022-07-16 05:59:00,,0832.6,5.00,0.00,31.2,28.3,00.0,39.1,32.0,33.5,0000.0,0009.35,0004.48,0003.90
